Salem, Oregon, United States (97301)
Lat: 44.94N, Lon: 123.03W
Wx Zone: ORZ007
Local Info
Past Weather Observations for Friday, August 29, 2014

NOTE: This archive is for the closest National Weather Service station to Salem. Information may differ from the station used for current weather conditions.

Click here for Long-term Archive

Time Weather Temperature Dewpoint Humidity Pressure Winds Precip Visibility
23:56
Clear
64°F / 18°C 54°F / 12°C 68% 29.98 in
(1015 mb)
Calm - 10SM
22:56
Overcast
66°F / 19°C 54°F / 12°C 64% 29.98 in
(1015 mb)
W 5.8 mph
(W 9 kph)
- 10SM
21:56
Partly Cloudy
66°F / 19°C 54°F / 12°C 64% 29.98 in
(1015 mb)
WNW 5.8 mph
(WNW 9 kph)
- 10SM
20:56
Clear
66°F / 19°C 55°F / 13°C 68% 29.95 in
(1014 mb)
Calm - 10SM
19:56
Clear
70°F / 21°C 55°F / 13°C 60% 29.98 in
(1015 mb)
WNW 8.1 mph
(WNW 13 kph)
- 10SM
18:56
Clear
72°F / 22°C 54°F / 12°C 53% 29.95 in
(1014 mb)
W 8.1 mph
(W 13 kph)
- 10SM
17:56
Clear
75°F / 24°C 54°F / 12°C 47% 29.95 in
(1014 mb)
NW 6.9 mph
(NW 11 kph)
- 10SM
16:56
Clear
75°F / 24°C 54°F / 12°C 47% 29.95 in
(1014 mb)
WNW 10.4 mph
(WNW 17 kph)
- 10SM
15:56
Clear
77°F / 25°C 54°F / 12°C 44% 29.95 in
(1014 mb)
WNW 9.2 mph
(WNW 15 kph)
- 10SM
14:56
Partly Cloudy
77°F / 25°C 52°F / 11°C 42% 29.95 in
(1014 mb)
W 12.7 mph
(W 20 kph)
- 10SM
13:56
Partly Cloudy
79°F / 26°C 54°F / 12°C 42% 29.98 in
(1015 mb)
NW 3.5 mph
(NW 6 kph)
- 10SM
12:56
Mostly Cloudy
75°F / 24°C 55°F / 13°C 50% 29.98 in
(1015 mb)
Calm - 10SM
11:56
Overcast
73°F / 23°C 55°F / 13°C 53% 29.98 in
(1015 mb)
W 6.9 mph
(W 11 kph)
- 10SM
10:56
Overcast
75°F / 24°C 55°F / 13°C 50% 29.98 in
(1015 mb)
NW 5.8 mph
(NW 9 kph)
- 10SM
09:56
Mostly Cloudy
73°F / 23°C 57°F / 14°C 57% 30.01 in
(1016 mb)
Calm - 10SM
08:56
Mostly Cloudy
66°F / 19°C 57°F / 14°C 73% 30.01 in
(1016 mb)
Calm - 10SM
07:56
Partly Cloudy
64°F / 18°C 55°F / 13°C 73% 30.01 in
(1016 mb)
Variable 3.5 mph
(Variable 6 kph)
- 10SM
06:56
Partly Cloudy
61°F / 16°C 55°F / 13°C 83% 30.01 in
(1016 mb)
Calm - 10SM
05:56
Mostly Cloudy
59°F / 15°C 55°F / 13°C 88% 30.01 in
(1016 mb)
Calm - 10SM
05:51
Mostly Cloudy
57°F / 14°C 55°F / 13°C 94% 30.01 in
(1016 mb)
S 3.5 mph
(S 6 kph)
- 10SM
04:56
Clear
57°F / 14°C 54°F / 12°C 88% 29.98 in
(1015 mb)
Calm - 10SM
03:56
Clear
59°F / 15°C 55°F / 13°C 88% 29.98 in
(1015 mb)
Calm - 10SM
02:56
Clear
61°F / 16°C 55°F / 13°C 83% 29.98 in
(1015 mb)
SSE 3.5 mph
(SSE 6 kph)
- 10SM
01:56
Clear
61°F / 16°C 55°F / 13°C 83% 30.01 in
(1016 mb)
Calm - 10SM
00:56
Clear
63°F / 17°C 55°F / 13°C 77% 29.98 in
(1015 mb)
Calm - 10SM
Time Weather Temperature Dewpoint Humidity Pressure Winds Precip Visibility


Weather for websites

WeatherForYou.com, LLC is not responsible for any damages or problems caused by this service. Current weather conditions are obtained from the closest station including government and personal stations which may have varying degrees of accuracy. Weather forecasts are derived from the NOAA NDFD. Like all things, this site belongs to Jesus Christ... He just trusts me to maintain it. If you have any questions or comments email webmaster@weatherforyou.com

Copyright © 2014, WeatherForYou.com LLC. All rights reserved.